星链-35963(STARLINK-35963)

导读

STARLINK-35963是美国SpaceX公司星链(Starlink)卫星互联网星座的一员,于2025年11月21日发射。它运行在低地轨道,是星链扩展全球高速低延迟互联网覆盖的组成部分,为偏远地区、移动场景(航海、航空等)提供宽带网络接入,助力缩小全球数字鸿沟,也可支撑应急通信等特殊场景需求。星链计划最终将部署数万颗低轨卫星,该卫星的入轨进一步增强了星座的服务容量与覆盖能力。

基本信息
目录编号:
66585
目录名称:
STARLINK-35963
国际标识:
2025-268AE
轨道中心:
EARTH
卫星名称:
星链-35963
卫星全名:
星链-35963(STARLINK-35963)
卫星状态:
在轨 (已飞行287 天)
发射日期:
2025-11-21 UTC
国别 :
美国 (US)
星等 :
--
轨道信息
数据来源 国际轨道数据
星历时间: 2026-09-03T20:39:59+0800
15小时前
查看轨道信息
半长轴: 6861.175km
偏心率: 0.0001354
轨道倾角: 43.001°
近地点辐角 271.184°
升交点赤经 63.086°
平近点角 88.886°
近地点: 482.108km
远地点: 483.968km
周期: 94.267分钟
每日圈数: 15.275838
详细信息
固有亮度:
5
最大亮度:
2.5
卫星平台:
Starlink V1.0
覆盖范围:
全球
运营商:
太空探索技术公司
运营商所在国:
美国
制造商(研发单位):
太空探索技术公司
制造商所在国:
美国
使用方式:
暂无
卫星简介
Starlink 计划是 SpaceX 推出的全球卫星互联网项目,通过发射低轨道卫星,为全球尤其是偏远地区提供高速、低延迟的互联网服务。自 2019 年起,Starlink 已部署数千颗卫星,旨在缩小全球数字鸿沟,推动互联网普及。该项目还为军事、航空等行业提供通信支持,带来广泛经济效益。
2D轨道图
3D轨道图
轨道高度分析图
轨道倾角分析图
轨道综合分析图
查看轨道综合分析图
交会数据列表
事件ID 空间交会对象 最接近时刻(TCA) 交会距离 交会风险概率(CRP) 交会风险指数(CRI) 操作
CDM_260905-041505-992706-658521
2026-09-05T
04:15:50+0000
0.273 km
中距离
2.200923E-4 高风险 0.82
CDM_260905-001105-734906-658521
2026-09-05T
00:11:20+0000
0.465 km
远距离
1.677559E-4 高风险 0.79
CDM_260830-192805-247906-658521
2026-08-30T
19:28:19+0000
0.874 km
远距离
2.929873E-5 中风险 0.64
CDM_260905-032805-992706-658521
2026-09-05T
03:28:45+0000
0.691 km
远距离
1.982272E-5 中风险 0.61
CDM_260905-014505-734906-658521
2026-09-05T
01:45:30+0000
1.393 km
极远距离
5.574498E-6 低风险 0.5
CDM_260905-133105-734906-658521
2026-09-05T
13:31:39+0000
1.477 km
极远距离
4.608323E-6 低风险 0.48
CDM_260831-172706-644806-658522
2026-08-31T
17:27:20+0000
1.474 km
极远距离
3.942958E-6 低风险 0.47
CDM_260905-015405-992706-658521
2026-09-05T
01:54:36+0000
1.342 km
极远距离
2.164401E-6 低风险 0.42
CDM_260905-024105-992706-658521
2026-09-05T
02:41:40+0000
1.484 km
极远距离
1.597249E-6 低风险 0.39
CDM_260904-223705-734906-658521
2026-09-04T
22:37:11+0000
2.280 km
极远距离
1.438705E-6 低风险 0.38